TEVEL-1 (51013 NORAD) Tracking and Keplerian Element Data

This shows tracking and keplerian element data for the satellite.

Feedback or suggestion? Click here.




ElementValue
Catalog51013
NameTEVEL-1
Epoch Orbit13363
Epoch Day160.15421248
Epoch Year2024
RAAN235.4352
Inclination97.3762
Eccentricity0.000177
Argument of Perigee231.824
Mean Anonmoly128.2861
Mean Motion15.6513692
Decay Rate0.00210513
L11 51013U 22002AF 24160.15421248 .00210513 00000+0 20864-2 0 9999
L22 51013 97.3762 235.4352 0001770 231.8240 128.2861 15.65136920133637



Live tracking and technical data element details for TEVEL-1 (NORAD 51013). TEVEL-1 can be tracked NOW for your location showing map with azimuth and elevation plus other details from your city location.







IsCatalogInMostPopularTable: catalog: 51013, numindb: 73
Update: records affected: 1



GetName: 51013 TEVEL-1

Hit Count: updated at: Thu, 23 Jan 2025 16:45:57 GMT